• In Portugal
  • List of Countries
  • For 7 days
  • Water Temperature
  • Satellite Maps
  • Weather Map
  • Weather Widgets
  • user-avatar
    Login

    Hourly Weather Adana

    Today, 19 October, Thursday

    Time Temperature Precipitation Wind Pressure Humidity
    00:00 +21°C° 0 mm 2 mps 761 mmHg 27%
    01:00 +21°C° 0 mm 2 mps 761 mmHg 27%
    02:00 +20°C° 0 mm 2 mps 761 mmHg 27%
    03:00 +20°C° 0 mm 2 mps 760 mmHg 28%
    04:00 +20°C° 0 mm 3 mps 760 mmHg 29%
    05:00 +19°C° 0 mm 3 mps 760 mmHg 30%
    06:00 +21°C° 0 mm 3 mps 760 mmHg 27%
    07:00 +24°C° 0 mm 3 mps 761 mmHg 24%
    08:00 +26°C° 0 mm 3 mps 761 mmHg 21%
    09:00 +28°C° 0 mm 2 mps 761 mmHg 19%
    10:00 +29°C° 0 mm 2 mps 760 mmHg 17%
    11:00 +31°C° 0 mm 2 mps 760 mmHg 15%
    12:00 +31°C° 0 mm 2 mps 760 mmHg 15%
    13:00 +31°C° 0 mm 2 mps 759 mmHg 14%
    14:00 +32°C° 0 mm 2 mps 759 mmHg 14%
    15:00 +30°C° 0 mm 2 mps 759 mmHg 17%
    16:00 +28°C° 0 mm 1 mps 759 mmHg 19%
    17:00 +26°C° 0 mm 1 mps 759 mmHg 22%
    18:00 +25°C° 0 mm 1 mps 759 mmHg 23%
    19:00 +25°C° 0 mm 1 mps 759 mmHg 24%
    20:00 +24°C° 0 mm 2 mps 760 mmHg 25%
    21:00 +23°C° 0 mm 2 mps 760 mmHg 25%
    22:00 +23°C° 0 mm 2 mps 760 mmHg 25%
    23:00 +21°C° 0 mm 2 mps 760 mmHg 25%

    Tomorrow, 20 October, Friday

    Time Temperature Precipitation Wind Pressure Humidity
    00:00 +21°C° 0 mm 3 mps 760 mmHg 26%
    01:00 +21°C° 0 mm 3 mps 760 mmHg 26%
    02:00 +20°C° 0 mm 3 mps 759 mmHg 27%
    03:00 +20°C° 0 mm 3 mps 759 mmHg 27%
    04:00 +20°C° 0 mm 3 mps 759 mmHg 27%
    05:00 +20°C° 0 mm 3 mps 759 mmHg 27%
    06:00 +22°C° 0 mm 3 mps 759 mmHg 24%
    07:00 +25°C° 0 mm 3 mps 760 mmHg 21%
    08:00 +26°C° 0 mm 3 mps 760 mmHg 18%
    09:00 +28°C° 0 mm 2 mps 760 mmHg 16%
    10:00 +30°C° 0 mm 2 mps 760 mmHg 14%
    11:00 +31°C° 0 mm 2 mps 759 mmHg 13%
    12:00 +32°C° 0 mm 2 mps 759 mmHg 13%
    13:00 +32°C° 0 mm 2 mps 759 mmHg 13%
    14:00 +32°C° 0 mm 2 mps 758 mmHg 12%
    15:00 +30°C° 0 mm 2 mps 758 mmHg 15%
    16:00 +28°C° 0 mm 2 mps 758 mmHg 18%
    17:00 +26°C° 0 mm 1 mps 758 mmHg 20%
    18:00 +25°C° 0 mm 1 mps 758 mmHg 21%
    19:00 +25°C° 0 mm 1 mps 759 mmHg 22%
    20:00 +24°C° 0 mm 1 mps 759 mmHg 23%
    21:00 +23°C° 0 mm 1 mps 759 mmHg 23%
    22:00 +23°C° 0 mm 1 mps 759 mmHg 23%
    23:00 +23°C° 0 mm 1 mps 759 mmHg 23%

    Day after tomorrow, 21 October, Saturday

    Time Temperature Precipitation Wind Pressure Humidity
    00:00 +22°C° 0 mm 1 mps 759 mmHg 23%
    01:00 +22°C° 0 mm 1 mps 759 mmHg 23%
    02:00 +22°C° 0 mm 1 mps 759 mmHg 23%
    03:00 +22°C° 0 mm 1 mps 759 mmHg 23%
    04:00 +21°C° 0 mm 1 mps 759 mmHg 22%
    05:00 +20°C° 0 mm 2 mps 758 mmHg 22%
    06:00 +23°C° 0 mm 1 mps 759 mmHg 20%
    07:00 +24°C° 0 mm 1 mps 759 mmHg 18%
    08:00 +26°C° 0 mm 1 mps 759 mmHg 16%
    09:00 +27°C° 0 mm 1 mps 759 mmHg 15%
    10:00 +29°C° 0 mm 2 mps 759 mmHg 15%
    11:00 +30°C° 0 mm 2 mps 758 mmHg 14%
    12:00 +30°C° 0 mm 2 mps 758 mmHg 15%
    13:00 +31°C° 0 mm 2 mps 758 mmHg 15%
    14:00 +31°C° 0 mm 3 mps 757 mmHg 16%
    15:00 +29°C° 0 mm 3 mps 757 mmHg 22%
    16:00 +27°C° 0 mm 3 mps 757 mmHg 28%
    17:00 +25°C° 0 mm 2 mps 757 mmHg 34%
    18:00 +24°C° 0 mm 2 mps 757 mmHg 36%
    19:00 +23°C° 0 mm 2 mps 758 mmHg 38%
    20:00 +23°C° 0 mm 1 mps 758 mmHg 39%
    21:00 +22°C° 0 mm 1 mps 758 mmHg 39%
    22:00 +22°C° 0 mm 1 mps 758 mmHg 38%
    23:00 +22°C° 0 mm 1 mps 758 mmHg 37%

    22 October, Sunday

    Time Temperature Precipitation Wind Pressure Humidity
    00:00 +21°C° 0 mm 1 mps 758 mmHg 36%
    01:00 +21°C° 0 mm 1 mps 758 mmHg 35%
    02:00 +19°C° 0 mm 2 mps 757 mmHg 34%
    03:00 +19°C° 0 mm 2 mps 758 mmHg 33%
    04:00 +19°C° 0 mm 2 mps 758 mmHg 31%
    05:00 +19°C° 0 mm 2 mps 758 mmHg 30%
    06:00 +21°C° 0 mm 2 mps 758 mmHg 27%
    07:00 +23°C° 0 mm 1 mps 758 mmHg 23%
    08:00 +25°C° 0 mm 1 mps 758 mmHg 20%
    09:00 +26°C° 0 mm 1 mps 758 mmHg 18%
    10:00 +28°C° 0 mm 1 mps 758 mmHg 17%
    11:00 +29°C° 0 mm 1 mps 757 mmHg 15%
    12:00 +30°C° 0 mm 2 mps 757 mmHg 15%
    13:00 +30°C° 0 mm 2 mps 756 mmHg 15%
    14:00 +30°C° 0 mm 2 mps 756 mmHg 15%
    15:00 +28°C° 0 mm 2 mps 756 mmHg 21%
    16:00 +27°C° 0 mm 2 mps 756 mmHg 26%
    17:00 +25°C° 0 mm 2 mps 756 mmHg 32%
    18:00 +24°C° 0 mm 1 mps 756 mmHg 35%
    19:00 +23°C° 0 mm 1 mps 756 mmHg 37%
    20:00 +23°C° 0 mm 1 mps 757 mmHg 40%
    21:00 +22°C° 0 mm 1 mps 757 mmHg 41%
    22:00 +22°C° 0 mm 1 mps 757 mmHg 41%
    23:00 +22°C° 0 mm 1 mps 756 mmHg 41%

    23 October, Monday

    Time Temperature Precipitation Wind Pressure Humidity
    00:00 +21°C° 0 mm 1 mps 756 mmHg 40%
    01:00 +21°C° 0 mm 1 mps 756 mmHg 38%
    02:00 +21°C° 0 mm 1 mps 756 mmHg 36%
    03:00 +20°C° 0 mm 1 mps 756 mmHg 35%
    04:00 +20°C° 0 mm 1 mps 756 mmHg 33%
    05:00 +20°C° 0 mm 1 mps 756 mmHg 31%
    06:00 +22°C° 0 mm 1 mps 756 mmHg 28%
    07:00 +23°C° 0 mm 1 mps 756 mmHg 25%
    08:00 +25°C° 0 mm 1 mps 757 mmHg 22%
    09:00 +26°C° 0 mm 1 mps 756 mmHg 20%
    10:00 +28°C° 0 mm 1 mps 756 mmHg 19%
    11:00 +29°C° 0 mm 1 mps 756 mmHg 18%
    12:00 +29°C° 0 mm 1 mps 756 mmHg 18%
    13:00 +30°C° 0 mm 2 mps 755 mmHg 18%
    14:00 +30°C° 0 mm 2 mps 755 mmHg 18%
    15:00 +28°C° 0 mm 2 mps 755 mmHg 23%
    16:00 +26°C° 0 mm 2 mps 755 mmHg 27%
    17:00 +25°C° 0 mm 2 mps 755 mmHg 32%
    18:00 +24°C° 0 mm 2 mps 756 mmHg 34%
    19:00 +23°C° 0 mm 2 mps 756 mmHg 35%
    20:00 +21°C° 0 mm 2 mps 756 mmHg 37%
    21:00 +21°C° 0 mm 2 mps 756 mmHg 37%
    22:00 +20°C° 0 mm 2 mps 756 mmHg 36%
    23:00 +21°C° 0 mm 1 mps 756 mmHg 36%

    24 October, Tuesday

    Time Temperature Precipitation Wind Pressure Humidity
    00:00 +20°C° 0 mm 2 mps 756 mmHg 38%
    01:00 +19°C° 0 mm 2 mps 756 mmHg 40%
    02:00 +19°C° 0 mm 2 mps 756 mmHg 42%
    03:00 +19°C° 0 mm 2 mps 756 mmHg 44%
    04:00 +18°C° 0 mm 2 mps 756 mmHg 46%
    05:00 +18°C° 0 mm 2 mps 757 mmHg 48%
    06:00 +20°C° 0 mm 2 mps 757 mmHg 44%
    07:00 +21°C° 0 mm 2 mps 757 mmHg 40%
    08:00 +24°C° 0 mm 2 mps 757 mmHg 36%
    09:00 +25°C° 0 mm 1 mps 757 mmHg 33%
    10:00 +27°C° 0 mm 1 mps 756 mmHg 30%
    11:00 +28°C° 0 mm 1 mps 756 mmHg 27%
    12:00 +28°C° 0 mm 2 mps 756 mmHg 27%
    13:00 +29°C° 0 mm 2 mps 755 mmHg 27%
    14:00 +29°C° 0 mm 3 mps 755 mmHg 27%
    15:00 +27°C° 0 mm 3 mps 755 mmHg 32%
    16:00 +26°C° 0 mm 3 mps 755 mmHg 37%
    17:00 +24°C° 0 mm 2 mps 756 mmHg 42%
    18:00 +23°C° 0 mm 2 mps 756 mmHg 43%
    19:00 +21°C° 0 mm 2 mps 756 mmHg 44%
    20:00 +21°C° 0 mm 2 mps 757 mmHg 45%
    21:00 +20°C° 0 mm 2 mps 757 mmHg 47%
    22:00 +20°C° 0 mm 2 mps 757 mmHg 48%
    23:00 +19°C° 0 mm 2 mps 757 mmHg 50%
    Show more